Weather History for Oxford, CT

Change the Weather History Date:

Friday, February 8, 2013

  Actual Average Record
Temperature  
Mean Temperature 26 °F -  
Max Temperature 30 °F 34 °F 51 °F (2009)
Min Temperature 21 °F 19 °F 1 °F (2003)
Degree Days  
Heating Degree Days 40    
Moisture  
Dew Point 18 °F    
Average Humidity 71    
Maximum Humidity 80    
Minimum Humidity 54    
Precipitation  
Precipitation 0.01 in - - ()
Sea Level Pressure  
Sea Level Pressure 29.91 in    
Wind  
Wind Speed 14 mph (NE)    
Max Wind Speed 33 mph    
Max Gust Speed 48 mph    
Visibility 3 miles    
Events Fog , Snow , Thunderstorm    
Averages and records for this station are not official NWS values.
T = Trace of Precipitation, MM = Missing Value Source: NWS Daily Summary

Daily Weather History Graph

Daily Weather History Graph

Search for Another Location

Airport:

Trip Planner

Search our weather history database for the weather conditions in past years. The results will help you decide how hot, cold, wet, or windy it might be!

Date:

Astronomy

Feb. 08, 2013 Rise Set
Actual Time 6:56 AM EST 5:17 PM EST
Civil Twilight 6:27 AM EST 5:46 PM EST
Nautical Twilight 5:54 AM EST 6:19 PM EST
Astronomical Twilight 5:22 AM EST 6:51 PM EST
Moon 5:23 AM EST (2/8) 3:47 PM EST (2/8)
Length of Visible Light 11h 19m
Length of Day
10h 21m
Waning Crescent, 3% of the Moon is Illuminated
Feb 8
Waning Crescent
Feb 10
New
Feb 17
First Quarter
Feb 25
Full
Mar 4
Last Quarter

Hourly Weather History & Observations

Time (EST) Temp. Windchill Dew Point Humidity Pressure Visibility Wind Dir Wind Speed Gust Speed Precip Events Conditions
12:15 AM 24.8 °F 16.9 °F 10.4 °F 54% 30.35 in 10.0 mi East 6.9 mph - N/A   Mostly Cloudy
12:35 AM 24.8 °F 16.9 °F 10.4 °F 54% 30.34 in 10.0 mi East 6.9 mph - N/A   Overcast
12:55 AM 26.6 °F 18.2 °F 12.2 °F 55% 30.34 in 10.0 mi East 8.1 mph - N/A   Overcast
1:15 AM 26.6 °F 18.2 °F 12.2 °F 55% 30.33 in 10.0 mi East 8.1 mph - N/A   Overcast
1:55 AM 26.6 °F 17.5 °F 12.2 °F 55% 30.32 in 10.0 mi East 9.2 mph - N/A   Overcast
2:15 AM 24.8 °F 15.3 °F 12.2 °F 59% 30.31 in 10.0 mi East 9.2 mph - N/A   Overcast
2:35 AM 24.8 °F 16.1 °F 10.4 °F 54% 30.31 in 10.0 mi East 8.1 mph - N/A   Overcast
2:55 AM 24.8 °F 15.3 °F 10.4 °F 54% 30.29 in 10.0 mi East 9.2 mph - N/A   Overcast
3:15 AM 24.8 °F 14.6 °F 10.4 °F 54% 30.28 in 10.0 mi East 10.4 mph - N/A   Overcast
3:35 AM 24.8 °F 15.3 °F 10.4 °F 54% 30.28 in 10.0 mi East 9.2 mph - N/A   Overcast
3:55 AM 24.8 °F 15.3 °F 12.2 °F 59% 30.26 in 10.0 mi ENE 9.2 mph - N/A   Overcast
4:35 AM 24.8 °F 15.3 °F 12.2 °F 59% 30.24 in 10.0 mi ENE 9.2 mph - N/A   Overcast
4:55 AM 24.8 °F 16.1 °F 14.0 °F 64% 30.24 in 10.0 mi ENE 8.1 mph - N/A   Overcast
5:15 AM 24.8 °F 16.1 °F 14.0 °F 64% 30.23 in 10.0 mi ENE 8.1 mph - N/A   Overcast
5:35 AM 24.8 °F 16.9 °F 14.0 °F 64% 30.22 in 10.0 mi ENE 6.9 mph - N/A   Overcast
5:45 AM 24.8 °F 14.6 °F 15.8 °F 69% 30.21 in 10.0 mi East 10.4 mph 17.3 mph N/A   Overcast
7:45 AM 26.6 °F 15.7 °F 17.6 °F 69% 30.17 in 5.0 mi East 12.7 mph 19.6 mph N/A   Overcast
8:25 AM 26.6 °F 18.2 °F 19.4 °F 74% 30.15 in 0.5 mi East 8.1 mph 17.3 mph N/A Fog , Snow Snow
8:45 AM 26.6 °F 16.2 °F 19.4 °F 74% 30.15 in 0.5 mi East 11.5 mph 20.7 mph N/A Fog , Snow Snow
9:45 AM 26.6 °F 16.2 °F 21.2 °F 80% 30.11 in 0.5 mi East 11.5 mph 18.4 mph N/A Fog , Snow Snow
11:45 AM 28.4 °F 16.6 °F 21.2 °F 74% 30.00 in 0.5 mi ENE 16.1 mph 25.3 mph N/A Fog , Snow Snow
12:45 PM 28.4 °F 19.7 °F 21.2 °F 74% 29.95 in 0.2 mi ENE 9.2 mph 20.7 mph N/A Fog , Snow Snow
12:55 PM 28.4 °F 18.0 °F 21.2 °F 74% 29.94 in 0.5 mi ENE 12.7 mph 21.9 mph N/A   Overcast
1:15 PM 28.4 °F 17.0 °F 23.0 °F 80% 29.91 in 0.5 mi ENE 15.0 mph 25.3 mph N/A   Overcast
1:35 PM 28.4 °F 17.0 °F 23.0 °F 80% 29.89 in 0.5 mi ENE 15.0 mph 24.2 mph N/A   Overcast
1:55 PM 28.4 °F 16.6 °F 23.0 °F 80% 29.87 in 0.5 mi NE 16.1 mph 27.6 mph N/A   Overcast
2:15 PM 28.4 °F 16.2 °F 23.0 °F 80% 29.85 in 1.0 mi ENE 17.3 mph 27.6 mph N/A   Overcast
2:35 PM 30.2 °F 18.9 °F 24.8 °F 80% 29.83 in 0.2 mi NE 16.1 mph 24.2 mph N/A   Overcast
2:55 PM 30.2 °F 18.5 °F 24.8 °F 80% 29.81 in 0.5 mi NE 17.3 mph 28.8 mph N/A   Overcast
3:15 PM 30.2 °F 18.9 °F 24.8 °F 80% 29.79 in 0.5 mi NE 16.1 mph 25.3 mph N/A   Overcast
3:35 PM 30.2 °F 17.8 °F 24.8 °F 80% 29.77 in 0.5 mi NE 19.6 mph 33.4 mph N/A   Overcast
3:55 PM 30.2 °F 18.1 °F 23.0 °F 75% 29.76 in 0.2 mi NE 18.4 mph 31.1 mph N/A   Overcast
4:15 PM 28.4 °F 14.7 °F 23.0 °F 80% 29.73 in 0.5 mi NE 21.9 mph 32.2 mph N/A   Overcast
4:35 PM 28.4 °F 15.4 °F 23.0 °F 80% 29.72 in 0.5 mi NE 19.6 mph 35.7 mph N/A   Overcast
4:55 PM 28.4 °F 15.8 °F 21.2 °F 74% 29.72 in 0.5 mi NE 18.4 mph 31.1 mph N/A   Overcast
5:15 PM 28.4 °F 13.8 °F 21.2 °F 74% 29.70 in 0.5 mi NE 25.3 mph 35.7 mph N/A   Overcast
5:35 PM 26.6 °F 11.7 °F 21.2 °F 80% 29.69 in 0.8 mi NE 24.2 mph 38.0 mph N/A   Overcast
5:55 PM 26.6 °F 11.4 °F 19.4 °F 74% 29.69 in 0.5 mi NE 25.3 mph 35.7 mph N/A   Overcast
6:15 PM 26.6 °F 12.7 °F 19.4 °F 74% 29.68 in 0.5 mi NE 20.7 mph 35.7 mph N/A   Overcast
6:35 PM 26.6 °F 12.4 °F 19.4 °F 74% 29.65 in 0.5 mi NE 21.9 mph 34.5 mph N/A   Overcast
6:55 PM 26.6 °F 11.7 °F 19.4 °F 74% 29.63 in 0.5 mi NE 24.2 mph 39.1 mph N/A   Overcast
7:15 PM 24.8 °F 9.6 °F 19.4 °F 80% 29.63 in 0.5 mi NE 23.0 mph 38.0 mph N/A   Overcast
7:35 PM 24.8 °F 9.0 °F 19.4 °F 80% 29.61 in 0.8 mi NNE 25.3 mph 38.0 mph N/A   Overcast
7:55 PM 24.8 °F 8.4 °F 17.6 °F 74% 29.59 in 0.2 mi NE 27.6 mph 36.8 mph N/A   Overcast
8:15 PM 24.8 °F 8.4 °F 17.6 °F 74% 29.57 in 0.2 mi NNE 27.6 mph 43.7 mph N/A   Overcast
8:35 PM 24.8 °F 9.3 °F 17.6 °F 74% 29.57 in 0.2 mi NNE 24.2 mph 42.6 mph N/A   Overcast
8:55 PM 24.8 °F 8.7 °F 17.6 °F 74% 29.57 in 0.2 mi NNE 26.5 mph 35.7 mph N/A Thunderstorm Overcast
9:15 PM 24.8 °F 8.7 °F 17.6 °F 74% 29.57 in 0.2 mi NE 26.5 mph 40.3 mph N/A   Overcast
9:35 PM 23.0 °F 6.0 °F 17.6 °F 80% 29.57 in 0.2 mi NNE 27.6 mph 48.3 mph N/A   Overcast
9:55 PM 23.0 °F 5.4 °F 17.6 °F 80% 29.56 in 0.2 mi NNE 29.9 mph 42.6 mph N/A   Overcast
10:15 PM 23.0 °F 6.0 °F 17.6 °F 80% 29.58 in 0.2 mi NNE 27.6 mph 41.4 mph 0.01 in   Overcast
10:55 PM 23.0 °F 4.6 °F 15.8 °F 74% 29.61 in 0.2 mi North 33.4 mph 44.9 mph 0.01 in   Overcast
11:15 PM 21.2 °F 4.5 °F 15.8 °F 80% 29.64 in 0.2 mi North 24.2 mph 36.8 mph N/A   Overcast
11:35 PM 21.2 °F 4.2 °F 15.8 °F 80% 29.66 in 0.2 mi North 25.3 mph 40.3 mph N/A   Overcast
11:55 PM 21.2 °F 3.3 °F 15.8 °F 80% 29.67 in 0.2 mi North 28.8 mph 46.0 mph N/A   Overcast